sat.trackr.live / text

‹ back to catalog

STARLINK-4190

NORAD 53001 · 2022-076R

PAYLOAD ACTIVE UNKNOWN

§ Identity

Operator
Country
US
Launch date
2022-07-07
Launch site
AFETR
Launch vehicle
Mass (kg)
RCS (m²)

Purposes: comms

External: N2YO · Heavens-Above · Gunter

§ Orbital elements

Epoch: 2026-09-19T17:28:10.626528Z

Period
93.79 min
Inclination
53.1585°
Eccentricity
0.0001212
Mean motion
15.35392507 rev/d
Perigee alt
458.9 km
Apogee alt
460.6 km
Semi-major
6,837.9 km
B*
-4.3325e-5
RAAN
287.3855°
Arg perigee
77.8513°
Mean anomaly
282.2625°
Rev number
23,235

§ Raw data

STARLINK-41901 53001U 22076R   26262.72790077 -.00001891  00000+0 -43325-4 0  99942 53001  53.1585 287.3855 0001212  77.8513 282.2625 15.35392507232355

JSON: /api/v1/satellites/53001 · /tle

For live sub-satellite position, see the globe view (requires WebGL).

§ Visibility from observer

Set your observer location to see the next 7 days of passes ≥ 10°. The values pass through the URL so the page stays shareable.

No JS? Fill the form by hand. The geolocation button needs JavaScript.